| time (UTC) | temp C | wind direction | speed KPH | gust KPH | rain 1hr cm | rain 24hr cm | rain mn cm | humidity % | barometer mb |
| 20260902185105 | 36 | 16 | 0.0 | 8.0 | 0.00 | 0.00 | 0.00 | 46 | 1015.7 |
| 20260902184504 | 36 | 349 | 0.0 | 8.0 | 0.00 | 0.00 | 0.00 | 45 | 1015.8 |
| 20260902184009 | 36 | 180 | 0.0 | 6.4 | 0.00 | 0.00 | 0.00 | 47 | 1015.9 |
| 20260902183603 | 36 | 274 | 0.0 | 6.4 | 0.00 | 0.00 | 0.00 | 48 | 1016.0 |
| 20260902183004 | 36 | 1 | 0.0 | 6.4 | 0.00 | 0.00 | 0.00 | 46 | 1016.0 |
| 20260902182509 | 36 | 32 | 0.0 | 6.4 | 0.00 | 0.00 | 0.00 | 47 | 1016.0 |
| 20260902182104 | 35 | 300 | 0.0 | 1.6 | 0.00 | 0.00 | 0.00 | 53 | 1016.1 |
| 20260902181504 | 35 | 237 | 0.0 | 1.6 | 0.00 | 0.00 | 0.00 | 50 | 1016.1 |
| 20260902181009 | 35 | 239 | 0.0 | 0.0 | 0.00 | 0.00 | 0.00 | 53 | 1016.1 |
| 20260902180605 | 34 | 18 | 0.0 | 0.0 | 0.00 | 0.00 | 0.00 | 56 | 1016.1 |
| 20260902180004 | 34 | 348 | 0.0 | 0.0 | 0.00 | 0.00 | 0.00 | 50 | 1016.1 |
| 20260902175509 | 34 | 348 | 0.0 | 0.0 | 0.00 | 0.00 | 0.00 | 50 | 1016.2 |
| 20260902175104 | 34 | 348 | 0.0 | 4.8 | 0.00 | 0.00 | 0.00 | 50 | 1016.2 |
| 20260902174503 | 35 | 301 | 0.0 | 6.4 | 0.00 | 0.00 | 0.00 | 50 | 1016.2 |
| 20260902174009 | 35 | 3 | 0.0 | 6.4 | 0.00 | 0.00 | 0.00 | 50 | 1016.4 |
| 20260902173603 | 35 | 311 | 0.0 | 1.6 | 0.00 | 0.00 | 0.00 | 50 | 1016.4 |
| 20260902173003 | 34 | 162 | 0.0 | 3.2 | 0.00 | 0.00 | 0.00 | 53 | 1016.4 |
| 20260902172509 | 34 | 162 | 0.0 | 3.2 | 0.00 | 0.00 | 0.00 | 50 | 1016.4 |
| 20260902172104 | 35 | 184 | 0.0 | 6.4 | 0.00 | 0.00 | 0.00 | 53 | 1016.5 |
| 20260902171504 | 35 | 174 | 1.6 | 6.4 | 0.00 | 0.00 | 0.00 | 50 | 1016.6 |
| 20260902171009 | 34 | 212 | 1.6 | 6.4 | 0.00 | 0.00 | 0.00 | 51 | 1016.7 |
| 20260902170603 | 34 | 221 | 0.0 | 8.0 | 0.00 | 0.00 | 0.00 | 54 | 1016.7 |
| 20260902170003 | 35 | 218 | 1.6 | 9.7 | 0.00 | 0.00 | 0.00 | 51 | 1016.8 |
| 20260902165510 | 35 | 181 | 3.2 | 9.7 | 0.00 | 0.00 | 0.00 | 51 | 1016.8 |
| 20260902165106 | 35 | 169 | 0.0 | 4.8 | 0.00 | 0.00 | 0.00 | 50 | 1016.9 |
| 20260902164503 | 35 | 1 | 3.2 | 4.8 | 0.00 | 0.00 | 0.00 | 50 | 1016.9 |
| 20260902164009 | 35 | 78 | 0.0 | 4.8 | 0.00 | 0.00 | 0.00 | 53 | 1016.9 |
| 20260902163602 | 35 | 41 | 0.0 | 4.8 | 0.00 | 0.00 | 0.00 | 52 | 1016.9 |
| 20260902163002 | 34 | 357 | 0.0 | 8.0 | 0.00 | 0.00 | 0.00 | 54 | 1017.0 |
| 20260902162509 | 34 | 1 | 1.6 | 8.0 | 0.00 | 0.00 | 0.00 | 51 | 1017.1 |
| 20260902162103 | 34 | 354 | 3.2 | 8.0 | 0.00 | 0.00 | 0.00 | 53 | 1017.1 |
| 20260902161504 | 33 | 9 | 0.0 | 4.8 | 0.00 | 0.00 | 0.00 | 54 | 1017.2 |
| 20260902161013 | 33 | 201 | 1.6 | 4.8 | 0.00 | 0.00 | 0.00 | 56 | 1017.2 |
| 20260902160603 | 33 | 209 | 0.0 | 6.4 | 0.00 | 0.00 | 0.00 | 56 | 1017.2 |
| 20260902160110 | 33 | 175 | 1.6 | 6.4 | 0.00 | 0.00 | 0.00 | 56 | 1017.3 |
| 20260902155509 | 33 | 210 | 0.0 | 4.8 | 0.00 | 0.00 | 0.00 | 57 | 1017.3 |
| 20260902155103 | 33 | 223 | 0.0 | 3.2 | 0.00 | 0.00 | 0.00 | 53 | 1017.4 |
| 20260902154502 | 33 | 348 | 0.0 | 4.8 | 0.00 | 0.00 | 0.00 | 54 | 1017.4 |
| 20260902154011 | 32 | 354 | 0.0 | 3.2 | 0.00 | 0.00 | 0.00 | 58 | 1017.4 |
| 20260902153604 | 32 | 325 | 0.0 | 3.2 | 0.00 | 0.00 | 0.00 | 58 | 1017.3 |
| 20260902153003 | 32 | 339 | 0.0 | 1.6 | 0.00 | 0.00 | 0.00 | 64 | 1017.4 |
| 20260902152509 | 32 | 309 | 0.0 | 1.6 | 0.00 | 0.00 | 0.00 | 67 | 1017.4 |
| 20260902152103 | 32 | 354 | 0.0 | 4.8 | 0.00 | 0.00 | 0.00 | 65 | 1017.4 |
| 20260902151503 | 31 | 349 | 1.6 | 4.8 | 0.00 | 0.00 | 0.00 | 60 | 1017.3 |
| 20260902151011 | 31 | 257 | 0.0 | 8.0 | 0.00 | 0.00 | 0.00 | 62 | 1017.4 |
| 20260902150603 | 31 | 257 | 0.0 | 8.0 | 0.00 | 0.00 | 0.00 | 67 | 1017.3 |
| 20260902150003 | 30 | 333 | 0.0 | 4.8 | 0.00 | 0.00 | 0.00 | 66 | 1017.4 |
| 20260902145510 | 30 | 327 | 0.0 | 4.8 | 0.00 | 0.00 | 0.00 | 66 | 1017.3 |
| 20260902145102 | 29 | 344 | 0.0 | 3.2 | 0.00 | 0.00 | 0.00 | 71 | 1017.3 |
| 20260902144503 | 28 | 193 | 0.0 | 1.6 | 0.00 | 0.00 | 0.00 | 78 | 1017.3 |
| 20260902144011 | 28 | 47 | 0.0 | 4.8 | 0.00 | 0.00 | 0.00 | 72 | 1017.3 |
| 20260902143604 | 28 | 47 | 0.0 | 4.8 | 0.00 | 0.00 | 0.00 | 77 | 1017.3 |
| 20260902143003 | 28 | 315 | 0.0 | 8.0 | 0.00 | 0.00 | 0.00 | 75 | 1017.2 |
| 20260902142510 | 27 | 306 | 0.0 | 8.0 | 0.00 | 0.00 | 0.00 | 80 | 1017.2 |
| 20260902142105 | 27 | 349 | 0.0 | 4.8 | 0.00 | 0.00 | 0.00 | 80 | 1017.1 |
| 20260902141503 | 26 | 347 | 0.0 | 3.2 | 0.00 | 0.00 | 0.00 | 79 | 1017.0 |
| 20260902141010 | 26 | 345 | 0.0 | 3.2 | 0.00 | 0.00 | 0.00 | 81 | 1017.0 |
| 20260902140607 | 25 | 315 | 0.0 | 4.8 | 0.00 | 0.00 | 0.00 | 87 | 1017.0 |
| 20260902140006 | 25 | 317 | 0.0 | 4.8 | 0.00 | 0.00 | 0.00 | 89 | 1017.0 |
| 20260902135509 | 24 | 252 | 0.0 | 1.6 | 0.00 | 0.00 | 0.00 | 93 | 1017.1 |
| 20260902135105 | 24 | 252 | 0.0 | 1.6 | 0.00 | 0.00 | 0.00 | 93 | 1017.1 |
| 20260902134503 | 23 | 252 | 0.0 | 0.0 | 0.00 | 0.00 | 0.00 | 95 | 1017.1 |
| 20260902134009 | 23 | 252 | 0.0 | 0.0 | 0.00 | 0.00 | 0.00 | 96 | 1017.1 |
| 20260902133603 | 23 | 252 | 0.0 | 0.0 | 0.00 | 0.00 | 0.00 | 96 | 1017.1 |
| 20260902133004 | 23 | 252 | 0.0 | 0.0 | 0.00 | 0.00 | 0.00 | 97 | 1017.2 |
| 20260902132514 | 22 | 252 | 0.0 | 0.0 | 0.00 | 0.00 | 0.00 | 97 | 1017.1 |
| 20260902132103 | 22 | 252 | 0.0 | 1.6 | 0.00 | 0.00 | 0.00 | 97 | 1017.2 |
| 20260902131503 | 22 | 252 | 0.0 | 1.6 | 0.00 | 0.00 | 0.00 | 97 | 1017.3 |
| 20260902131010 | 22 | 252 | 0.0 | 1.6 | 0.00 | 0.00 | 0.00 | 97 | 1017.3 |
| 20260902130604 | 22 | 252 | 0.0 | 1.6 | 0.00 | 0.00 | 0.00 | 97 | 1017.3 |
| 20260902130002 | 22 | 231 | 0.0 | 0.0 | 0.00 | 0.00 | 0.00 | 97 | 1017.3 |
| 20260902125509 | 21 | 231 | 0.0 | 0.0 | 0.00 | 0.00 | 0.00 | 97 | 1017.3 |
| 20260902124503 | 21 | 231 | 0.0 | 0.0 | 0.00 | 0.00 | 0.00 | 97 | 1017.5 |
| 20260902124009 | 21 | 231 | 0.0 | 0.0 | 0.00 | 0.00 | 0.00 | 97 | 1017.5 |
| 20260902123606 | 21 | 231 | 0.0 | 0.0 | 0.00 | 0.00 | 0.00 | 97 | 1017.5 |
| 20260902123002 | 21 | 231 | 0.0 | 0.0 | 0.00 | 0.00 | 0.00 | 97 | 1017.5 |
| 20260902122511 | 21 | 231 | 0.0 | 0.0 | 0.00 | 0.00 | 0.00 | 97 | 1017.5 |
| 20260902122103 | 21 | 231 | 0.0 | 0.0 | 0.00 | 0.00 | 0.00 | 97 | 1017.5 |
| 20260902121502 | 20 | 231 | 0.0 | 0.0 | 0.00 | 0.00 | 0.00 | 96 | 1017.5 |
| 20260902121009 | 20 | 231 | 0.0 | 0.0 | 0.00 | 0.00 | 0.00 | 97 | 1017.4 |
| 20260902120604 | 20 | 231 | 0.0 | 0.0 | 0.00 | 0.00 | 0.00 | 97 | 1017.4 |
| 20260902120004 | 20 | 231 | 0.0 | 0.0 | 0.00 | 0.00 | 0.00 | 96 | 1017.3 |
| 20260902115509 | 20 | 231 | 0.0 | 0.0 | 0.00 | 0.00 | 0.00 | 96 | 1017.3 |
| 20260902115102 | 20 | 231 | 0.0 | 0.0 | 0.00 | 0.00 | 0.00 | 96 | 1017.3 |
| 20260902114503 | 20 | 231 | 0.0 | 0.0 | 0.00 | 0.00 | 0.00 | 96 | 1017.2 |
| 20260902114010 | 20 | 231 | 0.0 | 0.0 | 0.00 | 0.00 | 0.00 | 96 | 1017.2 |
| 20260902113604 | 20 | 231 | 0.0 | 0.0 | 0.00 | 0.00 | 0.00 | 96 | 1017.2 |
| 20260902113003 | 20 | 231 | 0.0 | 0.0 | 0.00 | 0.00 | 0.00 | 96 | 1017.1 |
| 20260902112510 | 20 | 231 | 0.0 | 0.0 | 0.00 | 0.00 | 0.00 | 96 | 1017.0 |
| 20260902112104 | 20 | 231 | 0.0 | 0.0 | 0.00 | 0.00 | 0.00 | 96 | 1016.9 |
| 20260902111505 | 20 | 231 | 0.0 | 0.0 | 0.00 | 0.00 | 0.00 | 96 | 1016.9 |
| 20260902111009 | 20 | 231 | 0.0 | 0.0 | 0.00 | 0.00 | 0.00 | 96 | 1017.0 |
| 20260902110606 | 20 | 231 | 0.0 | 0.0 | 0.00 | 0.00 | 0.00 | 96 | 1016.9 |
| 20260902110005 | 20 | 231 | 0.0 | 0.0 | 0.00 | 0.00 | 0.00 | 96 | 1016.8 |
| 20260902105512 | 20 | 231 | 0.0 | 0.0 | 0.00 | 0.00 | 0.00 | 96 | 1016.8 |
| 20260902105102 | 20 | 231 | 0.0 | 0.0 | 0.00 | 0.00 | 0.00 | 96 | 1016.9 |
| 20260902104503 | 20 | 231 | 0.0 | 0.0 | 0.00 | 0.00 | 0.00 | 96 | 1016.9 |
| 20260902104009 | 20 | 231 | 0.0 | 0.0 | 0.00 | 0.00 | 0.00 | 96 | 1016.7 |
| 20260902103605 | 20 | 231 | 0.0 | 0.0 | 0.00 | 0.00 | 0.00 | 96 | 1016.7 |
| 20260902103003 | 20 | 231 | 0.0 | 0.0 | 0.00 | 0.00 | 0.00 | 96 | 1016.7 |
| 20260902102509 | 20 | 231 | 0.0 | 0.0 | 0.00 | 0.00 | 0.00 | 96 | 1016.7 |
| 20260902102107 | 20 | 231 | 0.0 | 0.0 | 0.00 | 0.00 | 0.00 | 96 | 1016.7 |
| 20260902101504 | 20 | 231 | 0.0 | 0.0 | 0.00 | 0.00 | 0.00 | 96 | 1016.7 |
| 20260902101009 | 20 | 231 | 0.0 | 0.0 | 0.00 | 0.00 | 0.00 | 96 | 1016.7 |
| 20260902100603 | 20 | 231 | 0.0 | 0.0 | 0.00 | 0.00 | 0.00 | 95 | 1016.7 |
| 20260902100003 | 20 | 231 | 0.0 | 0.0 | 0.00 | 0.00 | 0.00 | 95 | 1016.6 |
| 20260902095510 | 20 | 231 | 0.0 | 0.0 | 0.00 | 0.00 | 0.00 | 95 | 1016.6 |
| 20260902095103 | 20 | 231 | 0.0 | 0.0 | 0.00 | 0.00 | 0.00 | 96 | 1016.6 |
| 20260902094503 | 21 | 231 | 0.0 | 0.0 | 0.00 | 0.00 | 0.00 | 95 | 1016.7 |
| 20260902094012 | 21 | 231 | 0.0 | 0.0 | 0.00 | 0.00 | 0.00 | 95 | 1016.6 |
| 20260902093605 | 21 | 231 | 0.0 | 0.0 | 0.00 | 0.00 | 0.00 | 95 | 1016.6 |
| 20260902093002 | 21 | 231 | 0.0 | 0.0 | 0.00 | 0.00 | 0.00 | 95 | 1016.5 |
| 20260902092512 | 21 | 231 | 0.0 | 0.0 | 0.00 | 0.00 | 0.00 | 95 | 1016.5 |
| 20260902092105 | 21 | 231 | 0.0 | 0.0 | 0.00 | 0.00 | 0.00 | 95 | 1016.6 |
| 20260902091503 | 21 | 231 | 0.0 | 0.0 | 0.00 | 0.00 | 0.00 | 95 | 1016.5 |
| 20260902091008 | 21 | 231 | 0.0 | 0.0 | 0.00 | 0.00 | 0.00 | 95 | 1016.5 |
| 20260902090603 | 21 | 231 | 0.0 | 0.0 | 0.00 | 0.00 | 0.00 | 95 | 1016.5 |
| 20260902090002 | 21 | 231 | 0.0 | 0.0 | 0.00 | 0.00 | 0.00 | 95 | 1016.4 |
| 20260902085508 | 21 | 231 | 0.0 | 0.0 | 0.00 | 0.00 | 0.00 | 95 | 1016.3 |
| 20260902085104 | 21 | 231 | 0.0 | 0.0 | 0.00 | 0.00 | 0.00 | 95 | 1016.4 |
| 20260902084502 | 21 | 231 | 0.0 | 0.0 | 0.00 | 0.00 | 0.00 | 95 | 1016.3 |
| 20260902084010 | 21 | 231 | 0.0 | 0.0 | 0.00 | 0.00 | 0.00 | 95 | 1016.3 |
| 20260902083602 | 21 | 231 | 0.0 | 0.0 | 0.00 | 0.00 | 0.00 | 95 | 1016.3 |
| 20260902083002 | 21 | 231 | 0.0 | 0.0 | 0.00 | 0.00 | 0.00 | 95 | 1016.3 |
| 20260902082509 | 21 | 231 | 0.0 | 0.0 | 0.00 | 0.00 | 0.00 | 95 | 1016.3 |
| 20260902082103 | 21 | 231 | 0.0 | 0.0 | 0.00 | 0.00 | 0.00 | 95 | 1016.3 |
| 20260902081505 | 21 | 231 | 0.0 | 0.0 | 0.00 | 0.00 | 0.00 | 95 | 1016.2 |
| 20260902081009 | 21 | 231 | 0.0 | 0.0 | 0.00 | 0.00 | 0.00 | 95 | 1016.2 |
| 20260902080603 | 21 | 231 | 0.0 | 0.0 | 0.00 | 0.00 | 0.00 | 95 | 1016.1 |
| 20260902080002 | 21 | 231 | 0.0 | 0.0 | 0.00 | 0.00 | 0.00 | 95 | 1016.1 |
| 20260902075509 | 21 | 231 | 0.0 | 0.0 | 0.00 | 0.00 | 0.00 | 95 | 1016.1 |
| 20260902075103 | 21 | 231 | 0.0 | 0.0 | 0.00 | 0.00 | 0.00 | 95 | 1016.1 |
| 20260902074503 | 21 | 231 | 0.0 | 0.0 | 0.00 | 0.00 | 0.00 | 95 | 1016.2 |
| 20260902074010 | 21 | 231 | 0.0 | 0.0 | 0.00 | 0.00 | 0.00 | 95 | 1016.2 |
| 20260902073603 | 21 | 231 | 0.0 | 0.0 | 0.00 | 0.00 | 0.00 | 95 | 1016.2 |
| 20260902073008 | 21 | 231 | 0.0 | 0.0 | 0.00 | 0.00 | 0.00 | 95 | 1016.1 |
| 20260902072508 | 21 | 231 | 0.0 | 0.0 | 0.00 | 0.00 | 0.00 | 95 | 1016.1 |
| 20260902072105 | 21 | 231 | 0.0 | 0.0 | 0.00 | 0.00 | 0.00 | 94 | 1016.1 |
| 20260902071512 | 21 | 231 | 0.0 | 0.0 | 0.00 | 0.00 | 0.00 | 94 | 1016.2 |
| 20260902071011 | 21 | 231 | 0.0 | 0.0 | 0.00 | 0.00 | 0.00 | 94 | 1016.2 |
| 20260902070602 | 21 | 231 | 0.0 | 0.0 | 0.00 | 0.00 | 0.00 | 94 | 1016.2 |
| 20260902070007 | 21 | 231 | 0.0 | 0.0 | 0.00 | 0.00 | 0.00 | 94 | 1016.2 |
| 20260902065511 | 21 | 231 | 0.0 | 0.0 | 0.00 | 0.00 | 0.00 | 94 | 1016.2 |
| 20260902065105 | 21 | 231 | 0.0 | 0.0 | 0.00 | 0.00 | 0.00 | 94 | 1016.2 |
| 20260902064503 | 21 | 231 | 0.0 | 0.0 | 0.00 | 0.00 | 0.00 | 94 | 1016.2 |
| 20260902064008 | 21 | 231 | 0.0 | 0.0 | 0.00 | 0.00 | 0.00 | 94 | 1016.2 |
| 20260902063602 | 21 | 231 | 0.0 | 0.0 | 0.00 | 0.00 | 0.00 | 94 | 1016.2 |
| 20260902063003 | 21 | 231 | 0.0 | 0.0 | 0.00 | 0.00 | 0.00 | 94 | 1016.3 |
| 20260902062509 | 21 | 231 | 0.0 | 0.0 | 0.00 | 0.00 | 0.00 | 94 | 1016.3 |
| 20260902062103 | 21 | 231 | 0.0 | 0.0 | 0.00 | 0.00 | 0.00 | 94 | 1016.3 |
| 20260902061505 | 22 | 231 | 0.0 | 0.0 | 0.00 | 0.00 | 0.00 | 94 | 1016.3 |
| 20260902061009 | 22 | 231 | 0.0 | 0.0 | 0.00 | 0.00 | 0.00 | 94 | 1016.2 |
| 20260902060602 | 22 | 231 | 0.0 | 0.0 | 0.00 | 0.00 | 0.00 | 94 | 1016.2 |
| 20260902060007 | 22 | 231 | 0.0 | 0.0 | 0.00 | 0.00 | 0.00 | 94 | 1016.3 |
| 20260902055508 | 22 | 231 | 0.0 | 0.0 | 0.00 | 0.00 | 0.00 | 94 | 1016.2 |
| 20260902055103 | 22 | 231 | 0.0 | 0.0 | 0.00 | 0.00 | 0.00 | 94 | 1016.1 |
| 20260902054503 | 22 | 231 | 0.0 | 0.0 | 0.00 | 0.00 | 0.00 | 94 | 1016.2 |
| 20260902054009 | 22 | 231 | 0.0 | 0.0 | 0.00 | 0.00 | 0.00 | 94 | 1016.1 |
| 20260902053603 | 22 | 231 | 0.0 | 0.0 | 0.00 | 0.00 | 0.00 | 94 | 1016.1 |
| 20260902053003 | 22 | 231 | 0.0 | 0.0 | 0.00 | 0.00 | 0.00 | 93 | 1016.2 |
| 20260902052509 | 22 | 231 | 0.0 | 0.0 | 0.00 | 0.00 | 0.00 | 93 | 1016.1 |
| 20260902052103 | 22 | 231 | 0.0 | 0.0 | 0.00 | 0.00 | 0.00 | 93 | 1016.1 |
| 20260902051502 | 22 | 231 | 0.0 | 0.0 | 0.00 | 0.00 | 0.00 | 93 | 1016.0 |
| 20260902051010 | 22 | 231 | 0.0 | 0.0 | 0.00 | 0.00 | 0.00 | 93 | 1016.0 |
| 20260902050606 | 22 | 231 | 0.0 | 0.0 | 0.00 | 0.00 | 0.00 | 93 | 1016.1 |
| 20260902050004 | 22 | 231 | 0.0 | 0.0 | 0.00 | 0.00 | 0.00 | 93 | 1016.1 |
| 20260902045510 | 22 | 231 | 0.0 | 1.6 | 0.00 | 0.00 | 0.00 | 93 | 1016.0 |
| 20260902045103 | 22 | 231 | 0.0 | 1.6 | 0.00 | 0.00 | 0.00 | 93 | 1015.9 |
| 20260902044501 | 22 | 231 | 0.0 | 0.0 | 0.00 | 0.00 | 0.00 | 93 | 1016.0 |
| 20260902044009 | 22 | 231 | 0.0 | 0.0 | 0.00 | 0.00 | 0.00 | 93 | 1016.0 |
| 20260902043602 | 22 | 231 | 0.0 | 0.0 | 0.00 | 0.00 | 0.00 | 93 | 1016.0 |
| 20260902043003 | 22 | 231 | 0.0 | 0.0 | 0.00 | 0.00 | 0.00 | 92 | 1015.8 |
| 20260902042510 | 22 | 231 | 0.0 | 0.0 | 0.00 | 0.00 | 0.00 | 92 | 1015.7 |
| 20260902042103 | 22 | 231 | 0.0 | 0.0 | 0.00 | 0.00 | 0.00 | 92 | 1015.8 |
| 20260902041505 | 22 | 231 | 0.0 | 0.0 | 0.00 | 0.00 | 0.00 | 92 | 1015.8 |
| 20260902041003 | 22 | 231 | 0.0 | 0.0 | 0.00 | 0.00 | 0.00 | 92 | 1015.8 |
| 20260902040503 | 22 | 231 | 0.0 | 0.0 | 0.00 | 0.00 | 0.00 | 92 | 1015.9 |
| 20260902040008 | 22 | 231 | 0.0 | 0.0 | 0.00 | 0.00 | 0.00 | 92 | 1016.0 |
| 20260902035602 | 23 | 231 | 0.0 | 0.0 | 0.00 | 0.00 | 0.00 | 91 | 1016.0 |
| 20260902035003 | 23 | 231 | 0.0 | 0.0 | 0.00 | 0.00 | 0.00 | 91 | 1016.0 |
| 20260902034509 | 23 | 231 | 0.0 | 0.0 | 0.00 | 0.00 | 0.00 | 91 | 1015.9 |
| 20260902034104 | 23 | 231 | 0.0 | 0.0 | 0.00 | 0.00 | 0.00 | 91 | 1015.8 |
| 20260902033502 | 23 | 231 | 0.0 | 0.0 | 0.00 | 0.00 | 0.00 | 91 | 1015.8 |
| 20260902033009 | 23 | 231 | 0.0 | 0.0 | 0.00 | 0.00 | 0.00 | 91 | 1015.8 |
| 20260902032602 | 23 | 231 | 0.0 | 0.0 | 0.00 | 0.00 | 0.00 | 91 | 1015.9 |
| 20260902032003 | 23 | 231 | 0.0 | 0.0 | 0.00 | 0.00 | 0.00 | 91 | 1015.8 |
| 20260902031509 | 23 | 231 | 0.0 | 0.0 | 0.00 | 0.00 | 0.00 | 91 | 1015.8 |
| 20260902031104 | 23 | 231 | 0.0 | 0.0 | 0.00 | 0.00 | 0.00 | 91 | 1015.7 |
| 20260902030503 | 23 | 231 | 0.0 | 0.0 | 0.00 | 0.00 | 0.00 | 90 | 1015.8 |
| 20260902030009 | 23 | 231 | 0.0 | 0.0 | 0.00 | 0.00 | 0.00 | 90 | 1015.8 |
| 20260902025603 | 23 | 231 | 0.0 | 0.0 | 0.00 | 0.00 | 0.00 | 90 | 1015.8 |
| 20260902025003 | 23 | 231 | 0.0 | 0.0 | 0.00 | 0.00 | 0.00 | 90 | 1015.8 |
| 20260902024512 | 23 | 231 | 0.0 | 0.0 | 0.00 | 0.00 | 0.00 | 90 | 1015.8 |
| 20260902024103 | 23 | 231 | 0.0 | 1.6 | 0.00 | 0.00 | 0.00 | 89 | 1015.8 |
| 20260902023503 | 23 | 231 | 0.0 | 1.6 | 0.00 | 0.00 | 0.00 | 89 | 1015.8 |
| 20260902023016 | 23 | 231 | 0.0 | 0.0 | 0.00 | 0.00 | 0.00 | 89 | 1015.7 |
| 20260902022606 | 23 | 231 | 0.0 | 0.0 | 0.00 | 0.00 | 0.00 | 89 | 1015.7 |
| 20260902022003 | 23 | 231 | 0.0 | 0.0 | 0.00 | 0.00 | 0.00 | 88 | 1015.7 |
| 20260902021508 | 23 | 231 | 0.0 | 0.0 | 0.00 | 0.00 | 0.00 | 88 | 1015.7 |
| 20260902021103 | 23 | 231 | 0.0 | 0.0 | 0.00 | 0.00 | 0.00 | 88 | 1015.6 |
| 20260902020505 | 24 | 231 | 0.0 | 0.0 | 0.00 | 0.00 | 0.00 | 88 | 1015.6 |
| 20260902020008 | 24 | 231 | 0.0 | 0.0 | 0.00 | 0.00 | 0.00 | 88 | 1015.5 |
| 20260902015602 | 24 | 231 | 0.0 | 0.0 | 0.00 | 0.00 | 0.00 | 87 | 1015.4 |
| 20260902015003 | 24 | 231 | 0.0 | 0.0 | 0.00 | 0.00 | 0.00 | 87 | 1015.3 |
| 20260902014511 | 24 | 231 | 0.0 | 0.0 | 0.00 | 0.00 | 0.00 | 87 | 1015.2 |
| 20260902014104 | 24 | 231 | 0.0 | 0.0 | 0.00 | 0.00 | 0.00 | 87 | 1015.2 |
| 20260902013503 | 25 | 231 | 0.0 | 0.0 | 0.00 | 0.00 | 0.00 | 86 | 1015.1 |
| 20260902013008 | 25 | 231 | 0.0 | 0.0 | 0.00 | 0.00 | 0.00 | 86 | 1015.0 |
| 20260902012603 | 25 | 231 | 0.0 | 0.0 | 0.00 | 0.00 | 0.00 | 86 | 1015.0 |
| 20260902012002 | 25 | 231 | 0.0 | 0.0 | 0.00 | 0.00 | 0.00 | 85 | 1015.0 |
| 20260902011512 | 25 | 231 | 0.0 | 0.0 | 0.00 | 0.00 | 0.00 | 85 | 1015.0 |
| 20260902011103 | 25 | 231 | 0.0 | 0.0 | 0.00 | 0.00 | 0.00 | 85 | 1015.0 |
| 20260902010502 | 25 | 231 | 0.0 | 0.0 | 0.00 | 0.00 | 0.00 | 84 | 1014.9 |
| 20260902010014 | 25 | 231 | 0.0 | 0.0 | 0.00 | 0.00 | 0.00 | 84 | 1014.9 |
| 20260902005603 | 25 | 231 | 0.0 | 0.0 | 0.00 | 0.00 | 0.00 | 84 | 1014.8 |
| 20260902005002 | 26 | 231 | 0.0 | 0.0 | 0.00 | 0.00 | 0.00 | 84 | 1014.7 |
| 20260902004508 | 26 | 231 | 0.0 | 0.0 | 0.00 | 0.00 | 0.00 | 83 | 1014.7 |
| 20260902004102 | 26 | 231 | 0.0 | 0.0 | 0.00 | 0.00 | 0.00 | 83 | 1014.7 |
| 20260902003502 | 26 | 231 | 0.0 | 0.0 | 0.00 | 0.00 | 0.00 | 82 | 1014.7 |
| 20260902003009 | 26 | 231 | 0.0 | 0.0 | 0.00 | 0.00 | 0.00 | 82 | 1014.7 |
| 20260902002604 | 26 | 231 | 0.0 | 0.0 | 0.00 | 0.00 | 0.00 | 81 | 1014.7 |
| 20260902002005 | 26 | 231 | 0.0 | 0.0 | 0.00 | 0.00 | 0.00 | 80 | 1014.6 |
| 20260902001509 | 27 | 231 | 0.0 | 0.0 | 0.00 | 0.00 | 0.00 | 79 | 1014.6 |
| 20260902001102 | 27 | 231 | 0.0 | 0.0 | 0.00 | 0.00 | 0.00 | 79 | 1014.6 |
| 20260902000502 | 27 | 231 | 0.0 | 0.0 | 0.00 | 0.00 | 0.00 | 78 | 1014.6 |
| 20260902000013 | 27 | 231 | 0.0 | 0.0 | 0.00 | 0.00 | 0.00 | 78 | 1014.6 |
| 20260901235603 | 27 | 231 | 0.0 | 0.0 | 0.00 | 0.00 | 0.00 | 77 | 1014.6 |
| 20260901235005 | 28 | 231 | 0.0 | 0.0 | 0.00 | 0.00 | 0.00 | 75 | 1014.7 |
| 20260901234508 | 28 | 231 | 0.0 | 0.0 | 0.00 | 0.00 | 0.00 | 74 | 1014.7 |
| 20260901234103 | 28 | 231 | 0.0 | 0.0 | 0.00 | 0.00 | 0.00 | 74 | 1014.7 |
| 20260901233504 | 28 | 231 | 0.0 | 0.0 | 0.00 | 0.00 | 0.00 | 73 | 1014.7 |
| 20260901233012 | 28 | 231 | 0.0 | 0.0 | 0.00 | 0.00 | 0.00 | 73 | 1014.7 |
| 20260901232603 | 29 | 231 | 0.0 | 0.0 | 0.00 | 0.00 | 0.00 | 72 | 1014.8 |
| 20260901232003 | 29 | 231 | 0.0 | 0.0 | 0.00 | 0.00 | 0.00 | 70 | 1014.9 |
| 20260901231509 | 29 | 231 | 0.0 | 0.0 | 0.00 | 0.00 | 0.00 | 69 | 1014.8 |
| 20260901231104 | 30 | 231 | 0.0 | 0.0 | 0.00 | 0.00 | 0.00 | 69 | 1014.9 |
| 20260901230503 | 30 | 231 | 0.0 | 0.0 | 0.00 | 0.00 | 0.00 | 67 | 1015.0 |
| 20260901230016 | 30 | 231 | 0.0 | 0.0 | 0.00 | 0.00 | 0.00 | 67 | 1014.9 |
| 20260901225603 | 30 | 231 | 0.0 | 0.0 | 0.00 | 0.00 | 0.00 | 66 | 1015.0 |
| 20260901225002 | 30 | 231 | 0.0 | 0.0 | 0.00 | 0.00 | 0.00 | 66 | 1015.0 |
| 20260901224509 | 30 | 231 | 0.0 | 0.0 | 0.00 | 0.00 | 0.00 | 64 | 1015.0 |
| 20260901224103 | 31 | 231 | 0.0 | 0.0 | 0.00 | 0.00 | 0.00 | 63 | 1015.0 |
| 20260901223502 | 31 | 231 | 0.0 | 1.6 | 0.00 | 0.00 | 0.00 | 64 | 1015.0 |
| 20260901223023 | 31 | 231 | 0.0 | 1.6 | 0.00 | 0.00 | 0.00 | 63 | 1014.9 |
| 20260901222604 | 31 | 243 | 0.0 | 1.6 | 0.00 | 0.00 | 0.00 | 62 | 1014.9 |
| 20260901222002 | 31 | 245 | 0.0 | 8.0 | 0.00 | 0.00 | 0.00 | 59 | 1014.9 |
| 20260901221508 | 32 | 274 | 0.0 | 8.0 | 0.00 | 0.00 | 0.00 | 59 | 1014.8 |
| 20260901221105 | 32 | 335 | 0.0 | 4.8 | 0.00 | 0.00 | 0.00 | 59 | 1014.8 |
| 20260901220502 | 32 | 183 | 0.0 | 4.8 | 0.00 | 0.00 | 0.00 | 56 | 1014.7 |
| 20260901220008 | 32 | 347 | 0.0 | 4.8 | 0.00 | 0.00 | 0.00 | 54 | 1014.7 |
| 20260901215603 | 32 | 3 | 1.6 | 4.8 | 0.00 | 0.00 | 0.00 | 54 | 1014.6 |
| 20260901215002 | 32 | 93 | 0.0 | 3.2 | 0.00 | 0.00 | 0.00 | 50 | 1014.6 |
| 20260901214513 | 32 | 209 | 0.0 | 3.2 | 0.00 | 0.00 | 0.00 | 55 | 1014.6 |
| 20260901214102 | 33 | 288 | 0.0 | 3.2 | 0.00 | 0.00 | 0.00 | 55 | 1014.7 |
| 20260901213502 | 33 | 239 | 0.0 | 6.4 | 0.00 | 0.00 | 0.00 | 55 | 1014.8 |
| 20260901213008 | 34 | 318 | 1.6 | 6.4 | 0.00 | 0.00 | 0.00 | 46 | 1015.0 |
| 20260901212604 | 34 | 46 | 0.0 | 9.7 | 0.00 | 0.00 | 0.00 | 46 | 1015.0 |
| 20260901212002 | 35 | 323 | 0.0 | 9.7 | 0.00 | 0.00 | 0.00 | 45 | 1014.9 |
| 20260901211520 | 35 | 4 | 0.0 | 4.8 | 0.00 | 0.00 | 0.00 | 46 | 1015.0 |
| 20260901211102 | 35 | 315 | 0.0 | 4.8 | 0.00 | 0.00 | 0.00 | 42 | 1015.0 |
| 20260901210502 | 35 | 34 | 1.6 | 6.4 | 0.00 | 0.00 | 0.00 | 42 | 1015.0 |
| 20260901210009 | 35 | 360 | 0.0 | 6.4 | 0.00 | 0.00 | 0.00 | 41 | 1014.9 |
| 20260901205602 | 36 | 295 | 3.2 | 4.8 | 0.00 | 0.00 | 0.00 | 43 | 1014.9 |
| 20260901205002 | 36 | 155 | 0.0 | 6.4 | 0.00 | 0.00 | 0.00 | 40 | 1014.9 |
| 20260901204513 | 36 | 346 | 0.0 | 6.4 | 0.00 | 0.00 | 0.00 | 42 | 1015.0 |
| 20260901204102 | 36 | 11 | 0.0 | 3.2 | 0.00 | 0.00 | 0.00 | 45 | 1015.0 |
| 20260901203503 | 36 | 79 | 0.0 | 3.2 | 0.00 | 0.00 | 0.00 | 44 | 1015.0 |
| 20260901203009 | 36 | 305 | 0.0 | 6.4 | 0.00 | 0.00 | 0.00 | 44 | 1015.0 |
| 20260901202603 | 36 | 342 | 1.6 | 6.4 | 0.00 | 0.00 | 0.00 | 42 | 1015.1 |
| 20260901202003 | 36 | 136 | 0.0 | 4.8 | 0.00 | 0.00 | 0.00 | 44 | 1015.1 |
| 20260901201509 | 36 | 44 | 0.0 | 6.4 | 0.00 | 0.00 | 0.00 | 41 | 1015.2 |
| 20260901201103 | 36 | 8 | 0.0 | 6.4 | 0.00 | 0.00 | 0.00 | 43 | 1015.2 |
| 20260901200502 | 36 | 152 | 0.0 | 9.7 | 0.00 | 0.00 | 0.00 | 44 | 1015.3 |
| 20260901200032 | 36 | 306 | 0.0 | 9.7 | 0.00 | 0.00 | 0.00 | 42 | 1015.3 |
| 20260901195602 | 35 | 347 | 1.6 | 9.7 | 0.00 | 0.00 | 0.00 | 42 | 1015.3 |
| 20260901195003 | 35 | 51 | 0.0 | 1.6 | 0.00 | 0.00 | 0.00 | 44 | 1015.3 |
| 20260901194509 | 35 | 149 | 0.0 | 0.0 | 0.00 | 0.00 | 0.00 | 48 | 1015.4 |
| 20260901194102 | 35 | 135 | 0.0 | 1.6 | 0.00 | 0.00 | 0.00 | 51 | 1015.5 |
| 20260901193503 | 35 | 133 | 0.0 | 4.8 | 0.00 | 0.00 | 0.00 | 50 | 1015.4 |
| 20260901193009 | 36 | 4 | 0.0 | 4.8 | 0.00 | 0.00 | 0.00 | 45 | 1015.5 |
| 20260901192606 | 36 | 253 | 0.0 | 1.6 | 0.00 | 0.00 | 0.00 | 43 | 1015.5 |
| 20260901192003 | 36 | 176 | 0.0 | 6.4 | 0.00 | 0.00 | 0.00 | 42 | 1015.5 |
| 20260901191509 | 36 | 322 | 1.6 | 11.3 | 0.00 | 0.00 | 0.00 | 45 | 1015.7 |
| 20260901191103 | 35 | 347 | 1.6 | 11.3 | 0.00 | 0.00 | 0.00 | 45 | 1015.7 |
| 20260901190502 | 35 | 197 | 0.0 | 9.7 | 0.00 | 0.00 | 0.00 | 48 | 1015.8 |
| 20260901190009 | 35 | 184 | 1.6 | 9.7 | 0.00 | 0.00 | 0.00 | 49 | 1015.8 |
| 20260901185603 | 35 | 217 | 1.6 | 8.0 | 0.00 | 0.00 | 0.00 | 49 | 1016.0 |